Time,TemperatureF,DewpointF,PressureIn,WindDirection,WindDirectionDegrees,WindSpeedMPH,WindSpeedGustMPH,Humidity,HourlyPrecipIn,Conditions,Clouds,dailyrainin,SoftwareType,DateUTC
2013-08-01 09:41:00,66.6,50.9,30.00,South,182,0.0,0.0,57,0.00,,,0.00,Wunderground v.1.15,2013-08-01 17:41:00,
2013-08-01 09:46:00,66.8,51.5,29.99,SSW,207,0.0,2.0,58,0.00,,,0.00,Wunderground v.1.15,2013-08-01 17:46:00,
2013-08-01 09:52:00,67.3,51.1,29.99,SSW,204,0.0,2.0,56,0.00,,,0.00,Wunderground v.1.15,2013-08-01 17:52:00,
2013-08-01 09:57:00,67.4,50.7,29.99,ESE,107,0.0,3.0,55,0.00,,,0.00,Wunderground v.1.15,2013-08-01 17:57:00,
2013-08-01 10:02:00,67.4,50.7,29.99,South,182,0.0,2.0,55,0.00,,,0.00,Wunderground v.1.15,2013-08-01 18:02:00,
2013-08-01 10:07:00,67.9,50.6,29.99,SSW,198,1.0,2.0,54,0.00,,,0.00,Wunderground v.1.15,2013-08-01 18:07:00,
2013-08-01 10:12:00,68.3,51.0,29.99,South,170,0.0,2.0,54,0.00,,,0.00,Wunderground v.1.15,2013-08-01 18:12:00,
2013-08-01 10:18:00,68.4,50.6,29.99,South,177,2.0,3.0,53,0.00,,,0.00,Wunderground v.1.15,2013-08-01 18:18:00,
2013-08-01 10:23:00,68.4,50.6,29.99,SSE,165,0.0,3.0,53,0.00,,,0.00,Wunderground v.1.15,2013-08-01 18:23:00,
2013-08-01 10:28:00,68.8,51.0,29.99,East,90,0.0,3.0,53,0.00,,,0.00,Wunderground v.1.15,2013-08-01 18:28:00,
2013-08-01 10:33:00,69.3,50.9,29.99,SSW,204,0.0,3.0,52,0.00,,,0.00,Wunderground v.1.15,2013-08-01 18:33:00,
2013-08-01 10:39:00,69.8,51.4,29.99,South,175,1.0,3.0,52,0.00,,,0.00,Wunderground v.1.15,2013-08-01 18:39:00,
2013-08-01 10:44:00,70.1,51.1,29.99,South,170,0.0,2.0,51,0.00,,,0.00,Wunderground v.1.15,2013-08-01 18:44:00,
2013-08-01 10:49:00,70.6,51.1,29.99,SSW,203,0.0,2.0,50,0.00,,,0.00,Wunderground v.1.15,2013-08-01 18:49:00,
2013-08-01 10:54:00,70.9,51.3,29.99,SSW,203,0.0,1.0,50,0.00,,,0.00,Wunderground v.1.15,2013-08-01 18:54:00,
2013-08-01 10:59:00,70.9,50.8,29.99,SSW,198,0.0,2.0,49,0.00,,,0.00,Wunderground v.1.15,2013-08-01 18:59:00,
2013-08-01 11:04:00,71.3,50.6,29.98,WSW,255,0.0,2.0,48,0.00,,,0.00,Wunderground v.1.15,2013-08-01 19:04:00,
2013-08-01 11:09:00,71.5,50.8,29.98,South,181,0.0,3.0,48,0.00,,,0.00,Wunderground v.1.15,2013-08-01 19:09:00,
2013-08-01 11:14:00,71.8,50.5,29.98,South,180,2.0,3.0,47,0.00,,,0.00,Wunderground v.1.15,2013-08-01 19:14:00,
2013-08-01 11:20:00,71.8,50.5,29.98,South,178,0.0,3.0,47,0.00,,,0.00,Wunderground v.1.15,2013-08-01 19:20:00,
2013-08-01 11:25:00,72.7,51.3,29.98,South,178,0.0,1.0,47,0.00,,,0.00,Wunderground v.1.15,2013-08-01 19:25:00,
2013-08-01 11:30:00,73.3,50.7,29.98,South,177,1.0,1.0,45,0.00,,,0.00,Wunderground v.1.15,2013-08-01 19:30:00,
2013-08-01 11:35:00,73.9,51.2,29.98,South,177,0.0,1.0,45,0.00,,,0.00,Wunderground v.1.15,2013-08-01 19:35:00,
2013-08-01 11:40:00,74.4,51.7,29.98,SE,138,1.0,2.0,45,0.00,,,0.00,Wunderground v.1.15,2013-08-01 19:40:00,
2013-08-01 11:45:00,74.2,50.9,29.98,ESE,117,0.0,3.0,44,0.00,,,0.00,Wunderground v.1.15,2013-08-01 19:45:00,
2013-08-01 11:50:00,74.2,51.5,29.98,ESE,109,0.0,1.0,45,0.00,,,0.00,Wunderground v.1.15,2013-08-01 19:50:00,
2013-08-01 11:55:00,74.2,51.5,29.98,SE,143,0.0,4.0,45,0.00,,,0.00,Wunderground v.1.15,2013-08-01 19:55:00,
2013-08-01 12:01:00,74.6,51.2,29.98,SSE,164,0.0,3.0,44,0.00,,,0.00,Wunderground v.1.15,2013-08-01 20:01:00,
2013-08-01 12:06:00,74.7,51.3,29.98,SE,130,2.0,3.0,44,0.00,,,0.00,Wunderground v.1.15,2013-08-01 20:06:00,
2013-08-01 12:11:00,74.9,52.1,29.98,SSW,201,1.0,2.0,45,0.00,,,0.00,Wunderground v.1.15,2013-08-01 20:11:00,
2013-08-01 12:16:00,75.4,51.3,29.97,SSW,210,0.0,3.0,43,0.00,,,0.00,Wunderground v.1.15,2013-08-01 20:16:00,
2013-08-01 12:21:00,76.0,50.6,29.97,SW,225,1.0,2.0,41,0.00,,,0.00,Wunderground v.1.15,2013-08-01 20:21:00,
2013-08-01 12:26:00,75.6,50.2,29.97,SSE,161,2.0,4.0,41,0.00,,,0.00,Wunderground v.1.15,2013-08-01 20:26:00,
2013-08-01 12:32:00,75.6,50.2,29.97,SSE,155,4.0,4.0,41,0.00,,,0.00,Wunderground v.1.15,2013-08-01 20:32:00,
2013-08-01 12:37:00,75.6,50.2,29.97,ESE,111,1.0,4.0,41,0.00,,,0.00,Wunderground v.1.15,2013-08-01 20:37:00,
2013-08-01 12:40:00,76.0,50.6,29.97,South,178,2.0,2.0,41,0.00,,,0.00,Wunderground v.1.15,2013-08-01 20:40:00,
2013-08-01 12:46:00,76.7,50.6,29.96,West,260,0.0,3.0,40,0.00,,,0.00,Wunderground v.1.15,2013-08-01 20:46:00,
2013-08-01 12:51:00,77.0,51.5,29.96,SSE,161,0.0,1.0,41,0.00,,,0.00,Wunderground v.1.15,2013-08-01 20:51:00,
2013-08-01 12:56:00,77.4,51.2,29.96,SSE,159,0.0,3.0,40,0.00,,,0.00,Wunderground v.1.15,2013-08-01 20:56:00,
2013-08-01 13:01:00,77.6,50.7,29.96,WSW,253,0.0,1.0,39,0.00,,,0.00,Wunderground v.1.15,2013-08-01 21:01:00,
2013-08-01 13:07:00,77.4,51.2,29.96,SE,127,2.0,6.0,40,0.00,,,0.00,Wunderground v.1.15,2013-08-01 21:07:00,
2013-08-01 13:12:00,77.6,50.0,29.96,SE,138,2.0,3.0,38,0.00,,,0.00,Wunderground v.1.15,2013-08-01 21:12:00,
2013-08-01 13:17:00,77.6,50.0,29.95,West,265,0.0,5.0,38,0.00,,,0.00,Wunderground v.1.15,2013-08-01 21:17:00,
2013-08-01 13:22:00,78.1,50.4,29.95,ENE,73,3.0,4.0,38,0.00,,,0.00,Wunderground v.1.15,2013-08-01 21:22:00,
2013-08-01 13:27:00,78.5,48.6,29.95,SSW,208,3.0,4.0,35,0.00,,,0.00,Wunderground v.1.15,2013-08-01 21:27:00,
2013-08-01 13:32:00,78.5,48.6,29.95,SSE,160,1.0,4.0,35,0.00,,,0.00,Wunderground v.1.15,2013-08-01 21:32:00,
2013-08-01 13:37:00,78.6,47.1,29.95,South,171,0.0,4.0,33,0.00,,,0.00,Wunderground v.1.15,2013-08-01 21:37:00,
2013-08-01 13:42:00,79.4,48.6,29.95,South,188,1.0,3.0,34,0.00,,,0.00,Wunderground v.1.15,2013-08-01 21:42:00,
2013-08-01 13:47:00,79.4,49.4,29.95,SE,136,1.0,4.0,35,0.00,,,0.00,Wunderground v.1.15,2013-08-01 21:47:00,
2013-08-01 13:52:00,79.4,48.6,29.95,South,173,0.0,1.0,34,0.00,,,0.00,Wunderground v.1.15,2013-08-01 21:52:00,
2013-08-01 13:57:00,79.4,47.8,29.95,SSE,149,0.0,6.0,33,0.00,,,0.00,Wunderground v.1.15,2013-08-01 21:57:00,
2013-08-01 14:03:00,79.4,48.6,29.94,East,100,2.0,4.0,34,0.00,,,0.00,Wunderground v.1.15,2013-08-01 22:03:00,
2013-08-01 14:08:00,79.0,49.0,29.94,SSE,167,2.0,5.0,35,0.00,,,0.00,Wunderground v.1.15,2013-08-01 22:08:00,
2013-08-01 14:13:00,79.0,48.2,29.94,SSE,160,2.0,4.0,34,0.00,,,0.00,Wunderground v.1.15,2013-08-01 22:13:00,
2013-08-01 14:18:00,78.8,48.1,29.93,SSW,212,1.0,4.0,34,0.00,,,0.00,Wunderground v.1.15,2013-08-01 22:18:00,
2013-08-01 14:23:00,79.4,48.6,29.93,North,5,0.0,4.0,34,0.00,,,0.00,Wunderground v.1.15,2013-08-01 22:23:00,
2013-08-01 14:28:00,79.9,46.6,29.93,SSE,159,1.0,4.0,31,0.00,,,0.00,Wunderground v.1.15,2013-08-01 22:28:00,
2013-08-01 14:33:00,80.1,45.9,29.93,South,180,2.0,3.0,30,0.00,,,0.00,Wunderground v.1.15,2013-08-01 22:33:00,
2013-08-01 14:39:00,80.5,48.7,29.93,ENE,59,0.0,3.0,33,0.00,,,0.00,Wunderground v.1.15,2013-08-01 22:39:00,
2013-08-01 14:44:00,80.7,48.1,29.93,WSW,239,2.0,4.0,32,0.00,,,0.00,Wunderground v.1.15,2013-08-01 22:44:00,
2013-08-01 14:49:00,80.7,46.4,29.92,SE,146,3.0,5.0,30,0.00,,,0.00,Wunderground v.1.15,2013-08-01 22:49:00,
2013-08-01 14:54:00,80.5,46.2,29.92,ESE,114,3.0,3.0,30,0.00,,,0.00,Wunderground v.1.15,2013-08-01 22:54:00,
2013-08-01 14:59:00,80.5,44.4,29.92,ENE,78,0.0,3.0,28,0.00,,,0.00,Wunderground v.1.15,2013-08-01 22:59:00,
2013-08-01 15:04:00,80.5,44.4,29.92,SSE,165,0.0,2.0,28,0.00,,,0.00,Wunderground v.1.15,2013-08-01 23:04:00,
2013-08-01 15:09:00,80.7,44.6,29.92,South,175,2.0,5.0,28,0.00,,,0.00,Wunderground v.1.15,2013-08-01 23:09:00,
2013-08-01 15:14:00,80.7,45.5,29.91,SSE,162,3.0,3.0,29,0.00,,,0.00,Wunderground v.1.15,2013-08-01 23:14:00,
2013-08-01 15:20:00,81.1,44.9,29.91,SW,235,0.0,1.0,28,0.00,,,0.00,Wunderground v.1.15,2013-08-01 23:20:00,
2013-08-01 15:25:00,81.4,45.2,29.91,SW,235,0.0,2.0,28,0.00,,,0.00,Wunderground v.1.15,2013-08-01 23:25:00,
2013-08-01 15:30:00,81.8,45.5,29.90,South,175,1.0,2.0,28,0.00,,,0.00,Wunderground v.1.15,2013-08-01 23:30:00,
2013-08-01 15:35:00,81.6,44.4,29.90,South,180,0.0,3.0,27,0.00,,,0.00,Wunderground v.1.15,2013-08-01 23:35:00,
2013-08-01 15:40:00,82.0,45.7,29.90,SE,141,2.0,2.0,28,0.00,,,0.00,Wunderground v.1.15,2013-08-01 23:40:00,
2013-08-01 15:45:00,82.2,44.9,29.90,East,86,0.0,5.0,27,0.00,,,0.00,Wunderground v.1.15,2013-08-01 23:45:00,
2013-08-01 15:50:00,82.0,44.7,29.90,South,188,0.0,1.0,27,0.00,,,0.00,Wunderground v.1.15,2013-08-01 23:50:00,
2013-08-01 15:55:00,82.0,44.7,29.90,SE,134,3.0,5.0,27,0.00,,,0.00,Wunderground v.1.15,2013-08-01 23:55:00,
2013-08-01 16:00:00,81.6,44.4,29.89,South,182,1.0,1.0,27,0.00,,,0.00,Wunderground v.1.15,2013-08-02 00:00:00,
2013-08-01 16:05:00,81.1,43.9,29.89,SE,131,2.0,3.0,27,0.00,,,0.00,Wunderground v.1.15,2013-08-02 00:05:00,
2013-08-01 16:10:00,80.7,45.5,29.89,ESE,103,0.0,1.0,29,0.00,,,0.00,Wunderground v.1.15,2013-08-02 00:10:00,
2013-08-01 16:15:00,81.1,43.9,29.89,ESE,103,1.0,5.0,27,0.00,,,0.00,Wunderground v.1.15,2013-08-02 00:15:00,
2013-08-01 16:20:00,82.0,45.7,29.89,SE,140,1.0,2.0,28,0.00,,,0.00,Wunderground v.1.15,2013-08-02 00:20:00,
2013-08-01 16:26:00,82.4,44.1,29.89,ENE,66,1.0,8.0,26,0.00,,,0.00,Wunderground v.1.15,2013-08-02 00:26:00,
2013-08-01 16:31:00,82.4,45.1,29.88,SE,132,0.0,3.0,27,0.00,,,0.00,Wunderground v.1.15,2013-08-02 00:31:00,
2013-08-01 16:36:00,82.6,44.2,29.88,South,181,0.0,3.0,26,0.00,,,0.00,Wunderground v.1.15,2013-08-02 00:36:00,
2013-08-01 16:41:00,82.8,44.4,29.88,SW,218,3.0,5.0,26,0.00,,,0.00,Wunderground v.1.15,2013-08-02 00:41:00,
2013-08-01 16:46:00,82.6,44.2,29.87,WSW,240,0.0,5.0,26,0.00,,,0.00,Wunderground v.1.15,2013-08-02 00:46:00,
2013-08-01 16:51:00,82.6,44.2,29.87,SE,140,0.0,2.0,26,0.00,,,0.00,Wunderground v.1.15,2013-08-02 00:51:00,
2013-08-01 16:56:00,82.8,44.4,29.87,ENE,78,0.0,4.0,26,0.00,,,0.00,Wunderground v.1.15,2013-08-02 00:56:00,
2013-08-01 17:01:00,83.2,44.7,29.87,WNW,298,1.0,2.0,26,0.00,,,0.00,Wunderground v.1.15,2013-08-02 01:01:00,
2013-08-01 17:07:00,82.8,45.4,29.87,West,281,0.0,7.0,27,0.00,,,0.00,Wunderground v.1.15,2013-08-02 01:07:00,
2013-08-01 17:12:00,83.0,44.6,29.87,WSW,253,0.0,1.0,26,0.00,,,0.00,Wunderground v.1.15,2013-08-02 01:12:00,
2013-08-01 17:17:00,83.2,44.7,29.86,ESE,113,1.0,2.0,26,0.00,,,0.00,Wunderground v.1.15,2013-08-02 01:17:00,
2013-08-01 17:22:00,83.4,44.9,29.86,South,187,0.0,2.0,26,0.00,,,0.00,Wunderground v.1.15,2013-08-02 01:22:00,
2013-08-01 17:27:00,82.8,43.4,29.86,SE,144,0.0,4.0,25,0.00,,,0.00,Wunderground v.1.15,2013-08-02 01:27:00,
2013-08-01 17:32:00,82.8,43.4,29.85,SW,218,1.0,2.0,25,0.00,,,0.00,Wunderground v.1.15,2013-08-02 01:32:00,
2013-08-01 17:38:00,83.0,43.5,29.85,SW,219,0.0,2.0,25,0.00,,,0.00,Wunderground v.1.15,2013-08-02 01:38:00,
2013-08-01 17:43:00,83.4,43.9,29.85,WSW,238,1.0,2.0,25,0.00,,,0.00,Wunderground v.1.15,2013-08-02 01:43:00,
2013-08-01 17:48:00,83.0,43.5,29.85,SE,135,2.0,4.0,25,0.00,,,0.00,Wunderground v.1.15,2013-08-02 01:48:00,
2013-08-01 17:53:00,82.6,42.1,29.85,SSW,196,0.0,4.0,24,0.00,,,0.00,Wunderground v.1.15,2013-08-02 01:53:00,
2013-08-01 17:58:00,82.8,43.4,29.85,SE,126,0.0,4.0,25,0.00,,,0.00,Wunderground v.1.15,2013-08-02 01:58:00,
2013-08-01 18:04:00,83.4,42.8,29.84,SSE,163,4.0,4.0,24,0.00,,,0.00,Wunderground v.1.15,2013-08-02 02:04:00,
2013-08-01 18:09:00,83.2,42.6,29.84,SW,224,2.0,4.0,24,0.00,,,0.00,Wunderground v.1.15,2013-08-02 02:09:00,
2013-08-01 18:14:00,83.6,43.0,29.84,SW,224,0.0,1.0,24,0.00,,,0.00,Wunderground v.1.15,2013-08-02 02:14:00,
2013-08-01 18:19:00,83.8,43.2,29.83,ENE,69,2.0,5.0,24,0.00,,,0.00,Wunderground v.1.15,2013-08-02 02:19:00,
2013-08-01 18:24:00,83.2,43.7,29.83,ESE,120,1.0,5.0,25,0.00,,,0.00,Wunderground v.1.15,2013-08-02 02:24:00,
2013-08-01 18:29:00,83.0,43.5,29.83,SE,128,0.0,5.0,25,0.00,,,0.00,Wunderground v.1.15,2013-08-02 02:29:00,
2013-08-01 18:34:00,83.8,43.2,29.83,SE,128,0.0,1.0,24,0.00,,,0.00,Wunderground v.1.15,2013-08-02 02:34:00,
2013-08-01 18:39:00,84.1,43.4,29.83,ENE,69,1.0,3.0,24,0.00,,,0.00,Wunderground v.1.15,2013-08-02 02:39:00,
2013-08-01 18:44:00,83.8,44.2,29.83,ESE,105,0.0,2.0,25,0.00,,,0.00,Wunderground v.1.15,2013-08-02 02:44:00,
2013-08-01 18:49:00,83.2,43.7,29.83,SE,145,0.0,4.0,25,0.00,,,0.00,Wunderground v.1.15,2013-08-02 02:49:00,
2013-08-01 18:54:00,83.4,43.9,29.83,ESE,111,1.0,2.0,25,0.00,,,0.00,Wunderground v.1.15,2013-08-02 02:54:00,
2013-08-01 18:59:00,83.0,43.5,29.83,SSE,157,0.0,3.0,25,0.00,,,0.00,Wunderground v.1.15,2013-08-02 02:59:00,
2013-08-01 19:05:00,83.6,43.0,29.83,SSE,159,0.0,1.0,24,0.00,,,0.00,Wunderground v.1.15,2013-08-02 03:05:00,
2013-08-01 19:10:00,83.8,43.2,29.83,SSE,159,0.0,0.0,24,0.00,,,0.00,Wunderground v.1.15,2013-08-02 03:10:00,
2013-08-01 19:15:00,84.0,42.2,29.82,ESE,109,0.0,0.0,23,0.00,,,0.00,Wunderground v.1.15,2013-08-02 03:15:00,
2013-08-01 19:20:00,84.0,42.2,29.82,NNE,19,0.0,0.0,23,0.00,,,0.00,Wunderground v.1.15,2013-08-02 03:20:00,
2013-08-01 19:25:00,83.6,43.0,29.82,NNE,25,1.0,1.0,24,0.00,,,0.00,Wunderground v.1.15,2013-08-02 03:25:00,
2013-08-01 19:31:00,83.2,42.6,29.82,ESE,111,2.0,2.0,24,0.00,,,0.00,Wunderground v.1.15,2013-08-02 03:31:00,
2013-08-01 19:36:00,83.2,42.6,29.82,East,90,0.0,2.0,24,0.00,,,0.00,Wunderground v.1.15,2013-08-02 03:36:00,
2013-08-01 19:41:00,83.4,42.8,29.82,NE,34,0.0,1.0,24,0.00,,,0.00,Wunderground v.1.15,2013-08-02 03:41:00,
2013-08-01 19:46:00,83.0,43.5,29.81,SE,140,2.0,4.0,25,0.00,,,0.00,Wunderground v.1.15,2013-08-02 03:46:00,
2013-08-01 19:51:00,82.8,43.4,29.81,SE,140,0.0,1.0,25,0.00,,,0.00,Wunderground v.1.15,2013-08-02 03:51:00,
2013-08-01 19:56:00,83.0,42.5,29.81,ESE,123,0.0,1.0,24,0.00,,,0.00,Wunderground v.1.15,2013-08-02 03:56:00,
2013-08-01 20:01:00,83.0,42.5,29.81,East,88,2.0,3.0,24,0.00,,,0.00,Wunderground v.1.15,2013-08-02 04:01:00,
2013-08-01 20:02:00,83.0,43.5,29.81,East,89,0.0,3.0,25,0.00,,,0.00,Wunderground v.1.15,2013-08-02 04:02:00,
2013-08-01 20:07:00,82.8,43.4,29.81,SSE,167,0.0,3.0,25,0.00,,,0.00,Wunderground v.1.15,2013-08-02 04:07:00,
2013-08-01 20:12:00,82.6,43.2,29.81,NE,52,1.0,4.0,25,0.00,,,0.00,Wunderground v.1.15,2013-08-02 04:12:00,
2013-08-01 20:15:00,82.6,43.2,29.81,NE,53,2.0,4.0,25,0.00,,,0.00,Wunderground v.1.15,2013-08-02 04:15:00,
2013-08-01 20:16:00,82.6,43.2,29.81,East,90,1.0,4.0,25,0.00,,,0.00,Wunderground v.1.15,2013-08-02 04:16:00,
2013-08-01 20:21:00,82.6,43.2,29.81,East,90,0.0,1.0,25,0.00,,,0.00,Wunderground v.1.15,2013-08-02 04:21:00,
2013-08-01 20:26:00,82.4,43.0,29.81,ESE,117,0.0,3.0,25,0.00,,,0.00,Wunderground v.1.15,2013-08-02 04:26:00,
2013-08-01 20:31:00,82.4,43.0,29.81,ENE,69,0.0,1.0,25,0.00,,,0.00,Wunderground v.1.15,2013-08-02 04:31:00,
2013-08-01 20:37:00,82.2,41.8,29.81,East,83,0.0,3.0,24,0.00,,,0.00,Wunderground v.1.15,2013-08-02 04:37:00,
2013-08-01 20:42:00,82.0,42.7,29.81,ENE,72,0.0,1.0,25,0.00,,,0.00,Wunderground v.1.15,2013-08-02 04:42:00,
2013-08-01 20:47:00,82.0,42.7,29.80,East,80,0.0,1.0,25,0.00,,,0.00,Wunderground v.1.15,2013-08-02 04:47:00,
2013-08-01 20:52:00,82.0,41.6,29.80,East,80,1.0,1.0,24,0.00,,,0.00,Wunderground v.1.15,2013-08-02 04:52:00,
2013-08-01 20:57:00,82.0,42.7,29.80,East,79,0.0,1.0,25,0.00,,,0.00,Wunderground v.1.15,2013-08-02 04:57:00,
2013-08-01 21:02:00,81.6,42.4,29.80,East,91,0.0,3.0,25,0.00,,,0.00,Wunderground v.1.15,2013-08-02 05:02:00,
2013-08-01 21:07:00,81.2,42.0,29.80,ENE,64,0.0,3.0,25,0.00,,,0.00,Wunderground v.1.15,2013-08-02 05:07:00,
2013-08-01 21:12:00,80.9,42.8,29.80,ENE,57,0.0,2.0,26,0.00,,,0.00,Wunderground v.1.15,2013-08-02 05:12:00,
2013-08-01 21:17:00,80.7,42.6,29.80,ENE,76,0.0,2.0,26,0.00,,,0.00,Wunderground v.1.15,2013-08-02 05:17:00,
2013-08-01 21:22:00,80.3,42.3,29.80,NE,53,0.0,2.0,26,0.00,,,0.00,Wunderground v.1.15,2013-08-02 05:22:00,
2013-08-01 21:28:00,79.9,41.9,29.80,ESE,106,0.0,2.0,26,0.00,,,0.00,Wunderground v.1.15,2013-08-02 05:28:00,
2013-08-01 21:33:00,79.8,42.8,29.79,ENE,70,0.0,1.0,27,0.00,,,0.00,Wunderground v.1.15,2013-08-02 05:33:00,
2013-08-01 21:38:00,79.4,42.5,29.79,ENE,71,0.0,3.0,27,0.00,,,0.00,Wunderground v.1.15,2013-08-02 05:38:00,
2013-08-01 21:43:00,79.2,42.3,29.79,ENE,71,1.0,1.0,27,0.00,,,0.00,Wunderground v.1.15,2013-08-02 05:43:00,
2013-08-01 21:48:00,79.0,42.2,29.79,ENE,59,0.0,2.0,27,0.00,,,0.00,Wunderground v.1.15,2013-08-02 05:48:00,
2013-08-01 21:53:00,78.8,42.0,29.79,ENE,59,0.0,0.0,27,0.00,,,0.00,Wunderground v.1.15,2013-08-02 05:53:00,
2013-08-01 21:58:00,78.5,42.7,29.79,ENE,59,0.0,1.0,28,0.00,,,0.00,Wunderground v.1.15,2013-08-02 05:58:00,
2013-08-01 22:03:00,78.1,44.1,29.79,ENE,59,0.0,1.0,30,0.00,,,0.00,Wunderground v.1.15,2013-08-02 06:03:00,
2013-08-01 22:08:00,77.7,44.6,29.79,ENE,59,0.0,1.0,31,0.00,,,0.00,Wunderground v.1.15,2013-08-02 06:08:00,
2013-08-01 22:13:00,77.4,43.5,29.79,NE,39,0.0,2.0,30,0.00,,,0.00,Wunderground v.1.15,2013-08-02 06:13:00,
2013-08-01 22:19:00,77.0,43.2,29.79,NE,38,0.0,2.0,30,0.00,,,0.00,Wunderground v.1.15,2013-08-02 06:19:00,
2013-08-01 22:24:00,76.8,43.0,29.79,NNE,16,0.0,1.0,30,0.00,,,0.00,Wunderground v.1.15,2013-08-02 06:24:00,
2013-08-01 22:29:00,76.7,42.9,29.79,East,95,0.0,1.0,30,0.00,,,0.00,Wunderground v.1.15,2013-08-02 06:29:00,
2013-08-01 22:34:00,76.5,43.6,29.78,ENE,67,0.0,2.0,31,0.00,,,0.00,Wunderground v.1.15,2013-08-02 06:34:00,
2013-08-01 22:39:00,76.1,43.3,29.78,East,84,0.0,2.0,31,0.00,,,0.00,Wunderground v.1.15,2013-08-02 06:39:00,